Tracking 25378 objects as of 22-Jan-2022
HD Live streaming from Space Station
objects crossing your sky now

IRIDIUM 38

Track IRIDIUM 38 now!
10-day predictions
IRIDIUM 38 is classified as:


NORAD ID: 25043
Int'l Code: 1997-069E
Perigee: 776.5 km
Apogee: 779.2 km
Inclination: 86.4 °
Period: 100.3 minutes
Semi major axis: 7148 km
RCS: 5.0293 m2 (large)
Launch date: November 9, 1997
Source: United States (US)
Launch site: AIR FORCE WESTERN TEST RANGE (AFWTR)
aabbcc
Your satellite tracking list
Your tracking list is empty




NASA's NSSDC Master Catalog

Two Line Element Set (TLE):
1 25043U 97069E   22021.78162605  .00000149  00000-0  44221-4 0  9998
2 25043  86.3948  34.8798 0001944 130.3458 229.7908 14.36313928267535
Source of the keplerian elements: AFSPC